Estación de Algarrobo Bajo INIA

Ultimos registro cada 15 minutos 21
Estación Fecha / Hora Temperatura Humedad Lluvia Velocidad Dirección Radiación Presion
21 Algarrobo Bajo INIA 10-05-2026 05:00 3,7 93,8 0 0 0 0 0
20 Algarrobo Bajo INIA 10-05-2026 04:45 3,7 93,8 0 0,1 265 0 0
19 Algarrobo Bajo INIA 10-05-2026 04:30 3,4 93 0 0 0 0 0
18 Algarrobo Bajo INIA 10-05-2026 04:15 3,2 92,9 0 0 0 0 0
17 Algarrobo Bajo INIA 10-05-2026 04:00 4 91,9 0 0 318 0 0
16 Algarrobo Bajo INIA 10-05-2026 03:45 4 92,2 0 0 0 0 0
15 Algarrobo Bajo INIA 10-05-2026 03:30 4,4 93,3 0 0 0 0 0
14 Algarrobo Bajo INIA 10-05-2026 03:15 5,1 92,9 0 0 327 0 0
13 Algarrobo Bajo INIA 10-05-2026 03:00 4,9 92,8 0 0 349 0 0
12 Algarrobo Bajo INIA 10-05-2026 02:45 4,5 92,4 0 0,3 37 0 0
11 Algarrobo Bajo INIA 10-05-2026 02:30 4,6 91,6 0 0,7 46 0 0
10 Algarrobo Bajo INIA 10-05-2026 02:15 5,6 90,9 0 0 323 0 0
9 Algarrobo Bajo INIA 10-05-2026 02:00 5,6 90,6 0 0 0 0 0
8 Algarrobo Bajo INIA 10-05-2026 01:45 5,8 90,3 0 0 0 0 0
7 Algarrobo Bajo INIA 10-05-2026 01:30 5,7 90,5 0 0,1 41 0 0
6 Algarrobo Bajo INIA 10-05-2026 01:15 6,5 89,9 0 0 0 0 0
5 Algarrobo Bajo INIA 10-05-2026 01:00 6,6 89,2 0 0 301 0 0
4 Algarrobo Bajo INIA 10-05-2026 00:45 6,7 88,5 0 0,2 302 0 0
3 Algarrobo Bajo INIA 10-05-2026 00:30 7 87,8 0 0 0 0 0
2 Algarrobo Bajo INIA 10-05-2026 00:15 7,1 87,6 0 0,2 310 0 0
1 Algarrobo Bajo INIA 10-05-2026 00:00 7,2 87,9 0 0,4 315 0 0